Powrót do katalogu

SL-8 R/B

AktywnyLEO
NORAD 13242·ROCKET BODY·🇷🇺 Russia

Wystrzelony Jun 1, 1982 z Plesetsk Cosmodrome

Loading…

Następne Przeloty (najbliższe 24 godziny)

TLE

ŚwieżeSource: Space-Track

Epoka: Sep 14, 2026, 08:07 UTC

1 13242U 82051B   26257.33866900  .00000176  00000-0  67441-4 0  9995
2 13242  74.0408 274.4025 0024455   2.3807 357.7459 14.37424326318076

Śledź SL-8 R/B w czasie rzeczywistym z AllMySat

Download on the App Store